QPF
0.00 0.00 0.00 0.00 0.00 0.00 0.00 0.00 0.00 0.00 0.00 0.00 0.00 0.00 0.00 0.00 0.00 0.00 0.00 0.00 0.00 0.00 0.00 0.00 0.00 0.00 0.00 0.00 0.00 0.00 0.00 0.00 0.00 0.00 0.00 0.00 0.00 0.00 0.00 0.00 0.00 0.00 0.00
0.00 0.00 0.00 0.00 0.00 0.00 0.00 0.00 0.00 0.00 0.00 0.00 0.00 0.00 0.00 0.00 0.00 0.00 0.00 0.00 0.00 0.00 0.00 0.00 0.00 0.00 0.00 0.00 0.00 0.00 0.00 0.00 0.00 0.00 0.00 0.00 0.00 0.00 0.00 0.00 0.00 0.00 0.00
0.00 0.00 0.00 0.00 0.00 0.00 0.00 0.00 0.00 0.00 0.00 0.00 0.00 0.00 0.00 0.00 0.00 0.00 0.00 0.00 0.00 0.00 0.00 0.00 0.00 0.00 0.00 0.00 0.00 0.00 0.00 0.00 0.00 0.00 0.00 0.00 0.00 0.00 0.00 0.00 0.00 0.00 0.00
0.00 0.00 0.00 0.00 0.00 0.00 0.00 0.00 0.00 0.00 0.00 0.00 0.00 0.00 0.00 0.00 0.00 0.00 0.00 0.00 0.00 0.00 0.00 0.00 0.00 0.00 0.00 0.00 0.00 0.00 0.00 0.00 0.00 0.00 0.00 0.00 0.00 0.00 0.00 0.00 0.00 0.00 0.00
0.00 0.00 0.00 0.00 0.00 0.00 0.00 0.00 0.00 0.00 0.00 0.00 0.00 0.00 0.00 0.00 0.00 0.00 0.00 0.00 0.00 0.00 0.00 0.00 0.00 0.00 0.00 0.00 0.00 0.00 0.00 0.00 0.00 0.00 0.00 0.00 0.00 0.00 0.00 0.00 0.00 0.00 0.00
0.00 0.00 0.00 0.00 0.00 0.00 0.00 0.00 0.00 0.00 0.00 0.00 0.00 0.00 0.00 0.00 0.00 0.00 0.00 0.00 0.00 0.00 0.00 0.00 0.00 0.00 0.00 0.00 0.00 0.00 0.00 0.00 0.00 0.00 0.00 0.00 0.00 0.00 0.00 0.00 0.00 0.00 0.00
0.00 0.00 0.00 0.00 0.00 0.00 0.00 0.00 0.00 0.00 0.00 0.00 0.00 0.00 0.00 0.00 0.00 0.00 0.00 0.00 0.00 0.00 0.00 0.00 0.00 0.00 0.00 0.00 0.00 0.00 0.00 0.00 0.00 0.00 0.00 0.00 0.00 0.00 0.00 0.00 0.00 0.00 0.00
0.00 0.00 0.00 0.00 0.00 0.00 0.00 0.00 0.00 0.00 0.00 0.00 0.00 0.00 0.00 0.00 0.00 0.00 0.00 0.00 0.00 0.00 0.00 0.00 0.00 0.00 0.00 0.00 0.00 0.00 0.00 0.00 0.00 0.00 0.00 0.00 0.00 0.00 0.00 0.00 0.00 0.00 0.00
0.00 0.00 0.00 0.00 0.00 0.00 0.00 0.00 0.00 0.00 0.00 0.00 0.00 0.00 0.00 0.00 0.00 0.00 0.00 0.00 0.00 0.00 0.00 0.00 0.00 0.00 0.00 0.00 0.00 0.00 0.00 0.00 0.00 0.00 0.00 0.00 0.00 0.00 0.00 0.00 0.00 0.01 0.01
0.00 0.00 0.00 0.00 0.00 0.00 0.00 0.00 0.00 0.00 0.00 0.00 0.00 0.00 0.00 0.00 0.00 0.00 0.00 0.00 0.00 0.00 0.00 0.00 0.00 0.00 0.00 0.00 0.00 0.00 0.00 0.00 0.00 0.00 0.00 0.00 0.00 0.00 0.00 0.00 0.00 0.01 0.02
0.00 0.00 0.00 0.00 0.00 0.00 0.00 0.00 0.00 0.00 0.00 0.00 0.00 0.00 0.00 0.00 0.00 0.00 0.00 0.00 0.00 0.00 0.00 0.00 0.00 0.00 0.00 0.00 0.00 0.00 0.00 0.00 0.00 0.00 0.00 0.00 0.00 0.00 0.00 0.00 0.00 0.00 0.01
0.00 0.00 0.00 0.00 0.00 0.00 0.00 0.00 0.00 0.00 0.00 0.00 0.00 0.00 0.00 0.00 0.00 0.00 0.00 0.00 0.00 0.00 0.00 0.00 0.00 0.00 0.00 0.00 0.00 0.00 0.00 0.00 0.00 0.00 0.00 0.00 0.00 0.00 0.00 0.00 0.00 0.00 0.00
0.00 0.00 0.00 0.00 0.00 0.00 0.00 0.00 0.00 0.00 0.00 0.00 0.01 0.03 0.04 0.05 0.03 0.00 0.00 0.00 0.00 0.00 0.00 0.00 0.00 0.00 0.00 0.00 0.00 0.00 0.00 0.00 0.00 0.00 0.00 0.00 0.00 0.00 0.00 0.00 0.00 0.00 0.00
0.00 0.00 0.00 0.00 0.00 0.00 0.00 0.00 0.00 0.00 0.01 0.04 0.05 0.05 0.02 0.01 0.01 0.00 0.00 0.00 0.00 0.00 0.00 0.00 0.00 0.00 0.00 0.00 0.00 0.00 0.00 0.00 0.00 0.00 0.00 0.00 0.00 0.00 0.00 0.00 0.00 0.00 0.00
0.00 0.00 0.00 0.00 0.00 0.00 0.00 0.00 0.00 0.00 0.01 0.02 0.04 0.06 0.02 0.01 0.00 0.00 0.00 0.00 0.00 0.00 0.00 0.00 0.00 0.00 0.00 0.00 0.00 0.00 0.00 0.00 0.00 0.00 0.00 0.00 0.00 0.00 0.00 0.00 0.00 0.00 0.00
0.00 0.00 0.00 0.00 0.00 0.00 0.00 0.00 0.01 0.01 0.02 0.04 0.02 0.01 0.01 0.01 0.00 0.00 0.00 0.01 0.01 0.00 0.00 0.00 0.00 0.00 0.00 0.00 0.00 0.00 0.00 0.00 0.00 0.00 0.00 0.00 0.00 0.00 0.00 0.00 0.00 0.00 0.00
0.00 0.00 0.00 0.00 0.00 0.00 0.00 0.00 0.01 0.01 0.00 0.01 0.00 0.01 0.00 0.00 0.00 0.00 0.01 0.03 0.02 0.00 0.00 0.00 0.00 0.00 0.00 0.00 0.00 0.00 0.00 0.00 0.00 0.00 0.00 0.00 0.00 0.00 0.00 0.00 0.00 0.00 0.00
0.00 0.00 0.00 0.00 0.00 0.00 0.00 0.00 0.01 0.00 0.00 0.00 0.00 0.00 0.00 0.00 0.00 0.00 0.00 0.00 0.00 0.00 0.00 0.00 0.00 0.00 0.00 0.00 0.00 0.00 0.00 0.00 0.00 0.00 0.00 0.00 0.00 0.00 0.00 0.00 0.00 0.00 0.00
0.00 0.00 0.00 0.00 0.00 0.00 0.00 0.00 0.00 0.00 0.00 0.02 0.06 0.06 0.03 0.00 0.00 0.00 0.00 0.00 0.00 0.00 0.00 0.00 0.00 0.00 0.00 0.00 0.00 0.00 0.00 0.00 0.00 0.00 0.00 0.00 0.00 0.00 0.00 0.00 0.00 0.00 0.00
0.00 0.00 0.00 0.00 0.00 0.00 0.00 0.00 0.00 0.00 0.03 0.05 0.09 0.08 0.03 0.00 0.00 0.00 0.00 0.00 0.00 0.00 0.00 0.00 0.00 0.00 0.00 0.00 0.00 0.00 0.00 0.00 0.00 0.00 0.00 0.00 0.00 0.00 0.00 0.00 0.00 0.00 0.00
0.00 0.00 0.00 0.00 0.00 0.00 0.00 0.00 0.00 0.01 0.06 0.20 0.28 0.19 0.04 0.00 0.00 0.00 0.00 0.00 0.00 0.00 0.00 0.00 0.00 0.00 0.00 0.00 0.00 0.00 0.00 0.00 0.00 0.00 0.00 0.00 0.00 0.00 0.00 0.00 0.00 0.00 0.00
0.00 0.00 0.00 0.00 0.00 0.00 0.00 0.00 0.01 0.05 0.13 0.16 0.07 0.08 0.07 0.01 0.00 0.00 0.00 0.00 0.00 0.00 0.00 0.00 0.00 0.00 0.00 0.00 0.00 0.00 0.00 0.00 0.00 0.00 0.00 0.00 0.00 0.00 0.00 0.00 0.00 0.00 0.00
0.00 0.00 0.00 0.00 0.00 0.00 0.00 0.01 0.06 0.07 0.16 0.16 0.07 0.12 0.06 0.00 0.00 0.00 0.00 0.00 0.00 0.00 0.00 0.00 0.00 0.00 0.00 0.00 0.00 0.00 0.00 0.00 0.00 0.00 0.00 0.00 0.00 0.00 0.00 0.00 0.00 0.00 0.00
0.00 0.00 0.00 0.00 0.00 0.00 0.00 0.01 0.01 0.04 0.10 0.14 0.12 0.08 0.01 0.00 0.00 0.00 0.00 0.00 0.00 0.00 0.00 0.00 0.00 0.00 0.00 0.00 0.00 0.00 0.00 0.00 0.00 0.00 0.00 0.00 0.00 0.00 0.00 0.00 0.00 0.00 0.00
0.00 0.00 0.00 0.00 0.00 0.00 0.00 0.00 0.00 0.01 0.02 0.02 0.03 0.01 0.00 0.00 0.00 0.00 0.00 0.00 0.00 0.00 0.00 0.00 0.00 0.00 0.00 0.00 0.00 0.00 0.00 0.00 0.00 0.00 0.00 0.01 0.01 0.00 0.00 0.00 0.00 0.00 0.00
0.00 0.00 0.00 0.00 0.00 0.00 0.00 0.00 0.00 0.00 0.00 0.00 0.01 0.00 0.00 0.00 0.00 0.00 0.00 0.00 0.00 0.00 0.00 0.00 0.00 0.00 0.00 0.00 0.00 0.00 0.00 0.00 0.00 0.00 0.01 0.02 0.01 0.01 0.00 0.00 0.00 0.00 0.00
MSLP
1014.75 1014.85 1015.02 1015.74 1016.55 1017.24 1017.74 1018.10 1018.40 1018.83 1019.21 1019.59 1019.81 1020.03 1020.25 1020.63 1020.78 1020.79 1020.77 1020.65 1020.81 1020.65 1020.28 1020.43 1020.21 1020.19 1020.31 1020.41 1020.20 1020.15 1020.24 1020.10 1019.97 1019.13 1018.93 1018.91 1018.84 1018.81 1018.89 1018.84 1018.82 1018.89 1018.92
1014.53 1014.66 1014.84 1015.45 1015.98 1016.57 1017.21 1017.93 1018.44 1018.91 1019.17 1019.40 1019.82 1020.14 1020.40 1020.74 1021.00 1021.28 1021.22 1021.25 1021.20 1021.11 1020.71 1020.61 1020.63 1020.40 1020.34 1020.48 1020.44 1020.47 1020.15 1020.33 1020.25 1019.70 1019.33 1018.90 1019.10 1019.03 1019.22 1019.25 1019.25 1019.25 1019.23
1014.90 1014.89 1014.77 1014.71 1015.13 1015.80 1016.45 1017.10 1017.92 1018.24 1018.80 1019.29 1019.84 1020.26 1020.77 1021.13 1021.06 1021.29 1021.50 1021.62 1021.62 1021.61 1021.44 1021.25 1021.13 1021.00 1020.69 1020.82 1020.93 1020.96 1020.67 1020.30 1020.44 1020.29 1019.92 1019.28 1019.16 1019.30 1019.26 1019.41 1019.54 1019.44 1019.51
1014.85 1014.73 1014.99 1015.30 1015.62 1016.08 1016.53 1017.06 1017.66 1017.96 1018.48 1019.12 1019.36 1019.59 1019.97 1020.38 1020.71 1021.06 1021.65 1021.95 1021.94 1022.08 1022.00 1021.85 1021.63 1021.65 1021.40 1021.23 1021.24 1021.09 1020.99 1020.65 1020.62 1020.64 1020.56 1020.51 1020.57 1019.91 1019.41 1019.43 1019.40 1019.62 1019.61
1015.30 1015.12 1015.13 1015.30 1015.99 1016.37 1016.60 1017.09 1017.54 1018.23 1018.58 1018.86 1019.36 1019.48 1019.85 1020.48 1020.83 1021.22 1021.67 1021.91 1022.29 1022.22 1022.42 1022.29 1022.13 1021.92 1021.91 1021.78 1021.73 1021.50 1021.34 1021.20 1021.02 1020.99 1020.99 1020.93 1020.86 1020.94 1020.73 1019.95 1019.44 1020.10 1019.89
1015.68 1015.69 1015.62 1015.74 1016.26 1016.79 1016.86 1016.97 1017.51 1018.07 1018.56 1019.06 1018.91 1019.43 1019.72 1020.26 1021.06 1021.13 1021.43 1021.81 1022.18 1022.32 1022.40 1022.67 1022.41 1022.26 1022.28 1022.17 1022.10 1022.03 1021.83 1021.56 1021.46 1021.35 1021.23 1021.09 1021.30 1021.37 1021.49 1021.14 1020.72 1020.67 1020.10
1015.45 1015.82 1015.85 1015.98 1016.18 1016.77 1017.27 1017.42 1017.51 1017.97 1018.48 1019.05 1019.09 1019.49 1019.82 1020.25 1020.65 1021.13 1021.48 1021.67 1022.16 1022.48 1022.60 1022.67 1022.63 1022.60 1022.67 1022.61 1022.49 1022.25 1022.11 1021.93 1021.72 1021.63 1021.51 1021.60 1021.56 1021.71 1021.78 1021.84 1021.50 1021.24 1020.48
1016.21 1016.00 1016.10 1016.35 1016.73 1017.02 1017.43 1017.70 1017.89 1017.86 1018.37 1018.69 1019.38 1019.47 1019.99 1020.26 1020.71 1021.18 1021.65 1021.56 1022.40 1022.59 1022.71 1022.84 1022.95 1023.03 1022.93 1022.76 1022.78 1022.45 1022.26 1022.25 1022.05 1021.87 1021.73 1021.71 1021.80 1021.80 1021.89 1021.92 1021.83 1021.22 1020.42
1016.38 1016.24 1016.37 1016.55 1016.69 1016.90 1017.17 1017.65 1017.87 1018.25 1018.28 1018.74 1019.25 1019.50 1020.05 1020.28 1020.74 1021.23 1021.62 1022.05 1022.46 1022.59 1022.80 1022.91 1023.08 1023.23 1023.07 1022.82 1022.79 1022.63 1022.33 1022.24 1022.14 1021.95 1021.71 1021.59 1021.63 1021.71 1021.76 1021.70 1021.71 1021.47 1020.66
1016.73 1016.53 1016.55 1016.52 1016.59 1016.87 1017.04 1017.45 1017.96 1018.11 1018.47 1018.85 1019.22 1019.42 1019.89 1020.39 1020.73 1021.17 1021.56 1022.15 1022.23 1022.69 1022.60 1022.91 1023.22 1023.10 1023.17 1022.86 1022.74 1022.60 1022.34 1022.15 1022.09 1021.96 1021.83 1021.58 1021.53 1021.47 1021.38 1021.31 1021.24 1021.22 1020.95
1016.08 1016.60 1016.62 1016.71 1016.68 1016.90 1017.09 1017.35 1017.77 1018.08 1018.47 1018.97 1019.45 1019.77 1020.12 1020.55 1020.95 1021.35 1021.79 1021.86 1022.23 1022.48 1022.60 1022.93 1023.03 1023.13 1023.04 1022.76 1022.63 1022.31 1022.11 1022.02 1021.96 1021.76 1021.69 1021.57 1021.33 1021.07 1020.98 1021.04 1020.92 1020.80 1020.65
1015.94 1016.21 1016.10 1016.55 1016.61 1016.77 1016.91 1017.39 1017.90 1018.10 1018.32 1018.98 1019.48 1019.99 1020.34 1020.67 1021.01 1021.63 1021.88 1022.04 1022.19 1022.40 1022.62 1022.87 1022.99 1022.95 1022.87 1022.68 1022.47 1022.31 1022.14 1022.02 1021.86 1021.72 1021.66 1021.59 1021.39 1021.20 1021.05 1021.01 1020.74 1020.54 1020.34
1015.69 1015.61 1015.84 1016.24 1016.39 1016.63 1016.80 1017.23 1017.77 1018.28 1018.61 1019.14 1019.61 1020.19 1020.86 1020.87 1021.10 1021.50 1022.00 1022.05 1022.30 1022.38 1022.67 1022.79 1022.87 1022.88 1022.91 1022.77 1022.56 1022.39 1022.16 1021.93 1021.93 1021.88 1021.75 1021.66 1021.54 1021.22 1021.25 1021.14 1020.87 1020.71 1020.47
1015.29 1015.31 1015.34 1015.73 1016.15 1016.46 1016.72 1017.07 1017.63 1018.14 1018.81 1019.18 1019.88 1020.11 1020.83 1021.00 1021.42 1021.81 1021.89 1021.83 1022.31 1022.46 1022.73 1022.94 1022.99 1023.00 1022.83 1022.82 1022.70 1022.52 1022.15 1022.07 1021.98 1022.00 1021.98 1021.96 1021.79 1021.49 1021.47 1021.20 1021.03 1020.81 1020.36
1015.28 1015.29 1015.30 1015.67 1016.02 1016.47 1016.79 1017.03 1017.61 1018.35 1018.81 1019.24 1019.85 1019.86 1020.81 1021.03 1021.67 1021.74 1021.67 1022.01 1022.30 1022.58 1022.65 1023.00 1022.96 1022.78 1022.83 1022.80 1022.71 1022.46 1022.33 1022.21 1022.06 1022.13 1022.10 1022.19 1022.06 1021.73 1021.64 1021.39 1021.28 1020.97 1020.45
1016.00 1015.93 1015.57 1015.77 1015.98 1016.34 1016.63 1016.91 1017.39 1018.03 1018.62 1019.11 1019.69 1020.15 1020.71 1021.05 1021.15 1021.54 1022.05 1022.14 1022.17 1022.45 1022.75 1022.90 1022.81 1022.90 1023.03 1023.04 1022.82 1022.67 1022.42 1022.35 1022.20 1022.15 1022.19 1022.30 1022.15 1021.90 1021.87 1021.82 1021.74 1021.27 1020.64
1016.66 1016.49 1016.38 1016.28 1016.09 1016.21 1016.55 1016.71 1017.18 1017.73 1018.32 1018.83 1019.66 1020.15 1020.34 1020.53 1021.02 1021.20 1021.71 1021.96 1022.40 1022.63 1022.70 1022.82 1022.86 1022.95 1023.10 1023.09 1022.80 1022.65 1022.43 1022.38 1022.23 1022.27 1022.18 1022.20 1022.22 1022.20 1022.23 1022.29 1021.90 1021.60 1021.41
1017.11 1017.03 1016.93 1016.69 1016.39 1016.34 1016.41 1016.66 1016.99 1017.47 1018.05 1018.61 1019.41 1019.83 1019.95 1020.32 1020.88 1021.20 1021.75 1022.03 1022.16 1022.28 1022.52 1022.76 1022.86 1022.89 1023.06 1023.02 1022.63 1022.51 1022.29 1022.37 1022.37 1022.25 1022.28 1022.28 1022.19 1022.19 1022.24 1021.99 1021.94 1021.92 1021.99
1017.43 1017.53 1017.36 1016.91 1016.62 1016.45 1016.39 1016.49 1016.81 1017.24 1017.68 1018.30 1019.02 1019.52 1019.92 1020.33 1020.84 1021.27 1021.47 1021.74 1021.95 1022.26 1022.48 1022.66 1022.76 1022.74 1022.76 1022.70 1022.41 1022.37 1022.36 1022.42 1022.45 1022.44 1022.40 1022.32 1022.09 1022.23 1022.20 1021.95 1022.04 1022.29 1022.63
1017.55 1017.64 1017.31 1017.15 1016.79 1016.47 1016.37 1016.44 1016.66 1017.18 1017.54 1018.22 1018.86 1019.22 1019.83 1020.34 1020.70 1020.95 1021.28 1021.62 1021.91 1022.19 1022.44 1022.63 1022.69 1022.65 1022.48 1022.45 1022.29 1022.39 1022.57 1022.67 1022.81 1022.63 1022.40 1022.39 1022.18 1022.25 1022.17 1021.92 1022.10 1022.40 1022.81
1017.81 1017.68 1017.50 1017.40 1017.44 1016.98 1016.62 1016.57 1016.82 1017.07 1017.51 1018.17 1018.96 1019.82 1020.24 1020.43 1020.57 1020.88 1021.33 1021.64 1021.86 1022.21 1022.41 1022.56 1022.53 1022.41 1022.38 1022.25 1022.32 1022.27 1022.53 1022.99 1023.04 1022.50 1022.37 1022.46 1022.51 1022.43 1022.38 1022.35 1022.54 1022.81 1023.16
1017.89 1017.70 1017.71 1017.80 1017.80 1017.62 1017.22 1017.12 1017.14 1017.30 1017.78 1018.08 1019.20 1020.07 1020.49 1020.66 1020.72 1020.89 1021.36 1021.71 1021.96 1022.09 1022.21 1022.27 1022.23 1022.23 1022.25 1022.39 1022.23 1022.10 1022.55 1023.14 1022.85 1022.70 1022.71 1022.88 1022.81 1022.71 1022.75 1022.85 1023.34 1023.60 1023.69
1018.06 1018.05 1018.07 1018.33 1018.38 1018.27 1018.10 1018.02 1018.06 1017.86 1018.44 1019.09 1019.67 1020.27 1020.65 1020.71 1020.84 1021.03 1021.36 1021.66 1021.90 1021.98 1022.04 1022.10 1022.08 1022.08 1022.22 1022.30 1022.47 1022.31 1022.67 1022.92 1022.93 1022.99 1023.21 1023.27 1023.40 1023.44 1023.60 1023.92 1024.13 1024.10 1024.10
1018.25 1018.34 1018.37 1018.57 1018.82 1018.83 1018.78 1018.89 1018.87 1019.09 1019.44 1019.84 1020.19 1020.54 1020.62 1020.72 1020.98 1021.16 1021.39 1021.52 1021.65 1021.84 1021.93 1021.98 1022.01 1022.10 1022.21 1022.28 1022.38 1022.42 1022.70 1023.12 1023.15 1023.34 1023.63 1023.84 1023.96 1024.09 1024.34 1024.49 1024.50 1024.52 1024.57
1018.50 1018.58 1018.64 1018.82 1019.07 1019.22 1019.48 1019.43 1019.43 1019.56 1019.81 1020.02 1020.19 1020.41 1020.50 1020.58 1020.84 1020.95 1021.13 1021.30 1021.36 1021.53 1021.70 1021.81 1021.93 1022.05 1022.08 1022.11 1022.24 1022.37 1022.46 1022.74 1022.98 1023.40 1023.88 1024.25 1024.36 1024.41 1024.58 1024.74 1024.90 1024.97 1025.02
1018.76 1018.88 1019.04 1019.32 1019.54 1019.62 1019.77 1019.82 1019.86 1019.82 1019.82 1019.90 1020.09 1020.21 1020.27 1020.28 1020.53 1020.85 1020.93 1021.10 1021.13 1021.33 1021.56 1021.75 1021.91 1021.95 1022.09 1022.14 1022.16 1022.33 1022.47 1022.67 1022.99 1023.26 1023.72 1023.98 1024.19 1024.42 1024.64 1024.79 1025.00 1025.23 1025.41
Thickness
5645 5642 5640 5631 5620 5612 5605 5600 5595 5589 5582 5576 5573 5570 5566 5562 5560 5560 5561 5562 5560 5562 5566 5565 5569 5570 5570 5570 5574 5577 5576 5578 5581 5589 5591 5591 5593 5594 5593 5593 5594 5594 5594
5641 5637 5633 5625 5617 5609 5602 5594 5587 5579 5574 5570 5564 5560 5557 5554 5552 5549 5550 5550 5550 5552 5556 5557 5558 5562 5564 5564 5566 5568 5572 5571 5573 5578 5581 5586 5585 5586 5585 5585 5585 5585 5585
5629 5627 5624 5623 5617 5607 5599 5591 5582 5577 5569 5563 5557 5551 5546 5544 5544 5542 5541 5540 5541 5541 5544 5547 5548 5550 5555 5555 5555 5557 5561 5565 5565 5566 5571 5579 5579 5577 5578 5577 5576 5577 5576
5626 5622 5615 5610 5604 5597 5591 5583 5575 5569 5562 5555 5552 5548 5546 5542 5539 5537 5532 5529 5531 5532 5533 5536 5538 5540 5543 5546 5547 5549 5551 5556 5557 5557 5558 5559 5560 5567 5571 5570 5570 5568 5568
5610 5609 5605 5601 5592 5585 5580 5573 5566 5556 5551 5547 5542 5540 5538 5532 5529 5527 5522 5523 5520 5523 5523 5525 5528 5531 5532 5535 5537 5540 5542 5544 5546 5547 5547 5549 5549 5549 5550 5557 5562 5556 5558
5596 5592 5591 5587 5580 5573 5568 5564 5556 5548 5542 5536 5537 5532 5529 5524 5518 5519 5516 5515 5513 5513 5515 5513 5517 5520 5521 5523 5525 5527 5530 5533 5534 5536 5537 5538 5537 5538 5536 5538 5542 5540 5546
5587 5581 5578 5575 5571 5562 5555 5550 5546 5539 5533 5527 5526 5522 5520 5516 5513 5509 5507 5506 5504 5503 5504 5504 5507 5508 5509 5511 5513 5516 5518 5521 5523 5524 5526 5526 5526 5525 5525 5524 5526 5526 5533
5569 5568 5564 5560 5556 5549 5542 5537 5533 5530 5524 5521 5514 5513 5509 5506 5502 5499 5496 5496 5491 5490 5492 5493 5494 5495 5497 5500 5500 5504 5507 5508 5511 5512 5514 5514 5514 5514 5512 5512 5512 5517 5524
5554 5554 5552 5550 5547 5541 5534 5528 5523 5518 5516 5511 5506 5503 5498 5496 5492 5488 5485 5481 5478 5479 5479 5480 5481 5482 5484 5488 5489 5491 5495 5497 5499 5501 5503 5504 5504 5502 5502 5501 5500 5500 5505
5539 5539 5541 5540 5536 5530 5525 5519 5513 5509 5504 5500 5496 5494 5490 5485 5483 5479 5476 5471 5470 5467 5470 5469 5467 5469 5471 5475 5477 5480 5483 5485 5487 5488 5490 5493 5492 5493 5493 5493 5492 5490 5490
5531 5529 5531 5527 5521 5518 5514 5508 5503 5498 5493 5489 5484 5482 5478 5474 5471 5468 5464 5463 5460 5458 5459 5458 5458 5458 5460 5463 5467 5471 5474 5475 5475 5478 5479 5480 5482 5484 5484 5482 5482 5481 5480
5521 5521 5521 5514 5511 5507 5503 5497 5490 5487 5484 5478 5474 5470 5466 5464 5461 5457 5455 5453 5452 5450 5449 5448 5448 5450 5451 5453 5456 5459 5461 5462 5463 5465 5465 5466 5467 5468 5468 5468 5470 5470 5470
5512 5512 5511 5504 5501 5496 5492 5486 5480 5474 5470 5465 5462 5457 5451 5452 5451 5449 5444 5445 5443 5442 5440 5440 5440 5441 5441 5443 5445 5447 5449 5451 5451 5451 5452 5452 5453 5456 5455 5456 5458 5457 5457
5502 5503 5501 5497 5490 5484 5478 5474 5468 5463 5457 5453 5447 5447 5444 5441 5438 5435 5436 5438 5434 5434 5432 5430 5430 5431 5432 5434 5435 5437 5440 5440 5441 5440 5440 5440 5441 5443 5442 5444 5444 5445 5447
5490 5489 5487 5484 5477 5470 5464 5462 5455 5448 5445 5442 5437 5439 5432 5430 5426 5426 5428 5426 5425 5425 5425 5423 5424 5425 5425 5426 5426 5429 5430 5430 5431 5430 5430 5429 5429 5431 5430 5431 5430 5430 5433
5470 5469 5471 5468 5463 5457 5453 5450 5445 5439 5435 5433 5428 5426 5422 5420 5419 5418 5415 5416 5417 5417 5415 5415 5416 5417 5416 5416 5418 5419 5421 5420 5422 5422 5422 5419 5419 5419 5417 5416 5414 5416 5420
5451 5450 5449 5448 5450 5447 5442 5440 5436 5431 5428 5425 5419 5416 5415 5415 5411 5411 5408 5408 5406 5406 5406 5407 5408 5409 5409 5409 5410 5411 5412 5412 5414 5413 5413 5410 5409 5407 5404 5402 5403 5404 5404
5435 5433 5431 5431 5433 5433 5432 5430 5428 5424 5421 5418 5411 5408 5408 5406 5403 5402 5400 5399 5400 5401 5400 5400 5401 5402 5402 5402 5404 5404 5406 5406 5405 5404 5402 5400 5399 5397 5395 5396 5396 5395 5393
5421 5417 5417 5418 5419 5420 5420 5420 5419 5416 5414 5409 5404 5401 5399 5396 5393 5392 5393 5393 5394 5393 5393 5393 5394 5396 5397 5397 5398 5399 5399 5398 5395 5394 5392 5391 5392 5389 5388 5390 5388 5386 5382
5408 5406 5407 5406 5408 5410 5410 5410 5409 5405 5405 5400 5396 5395 5391 5389 5387 5387 5386 5386 5386 5385 5386 5386 5387 5388 5391 5391 5392 5392 5389 5386 5384 5385 5385 5382 5383 5382 5382 5384 5382 5379 5375
5394 5394 5393 5393 5391 5395 5398 5399 5398 5397 5395 5390 5386 5381 5380 5380 5381 5380 5379 5378 5379 5378 5378 5379 5381 5383 5384 5385 5384 5384 5382 5377 5376 5379 5379 5376 5374 5375 5375 5375 5374 5371 5367
5382 5383 5381 5378 5377 5377 5382 5383 5384 5384 5383 5383 5376 5371 5369 5370 5370 5372 5371 5370 5370 5372 5373 5374 5376 5377 5378 5376 5378 5378 5375 5370 5371 5371 5369 5367 5366 5367 5366 5365 5361 5359 5357
5371 5369 5368 5363 5361 5362 5363 5364 5366 5370 5368 5365 5363 5360 5359 5361 5362 5363 5363 5363 5363 5365 5366 5368 5370 5371 5370 5370 5369 5370 5367 5365 5364 5363 5359 5358 5356 5355 5354 5351 5350 5349 5348
5360 5358 5357 5355 5351 5351 5350 5350 5351 5351 5351 5348 5346 5346 5350 5352 5353 5354 5355 5357 5359 5359 5360 5361 5362 5363 5362 5364 5363 5363 5360 5357 5356 5353 5350 5347 5346 5345 5343 5342 5341 5341 5339
5348 5347 5346 5344 5341 5340 5337 5338 5339 5340 5339 5339 5339 5339 5343 5346 5346 5348 5349 5350 5352 5353 5354 5355 5355 5355 5357 5358 5358 5357 5356 5354 5351 5346 5341 5338 5337 5337 5336 5335 5333 5331 5330
5336 5335 5333 5330 5328 5327 5326 5326 5327 5329 5331 5333 5333 5335 5337 5340 5341 5341 5343 5343 5346 5346 5346 5346 5346 5348 5349 5350 5351 5351 5349 5347 5344 5341 5337 5335 5334 5332 5330 5329 5327 5324 5322